Overview Statistics Trail Chart Weather Telemetry Raw packets
 

This is the latest recevied weather packets stored in our database for station/object OH2HCY. If no packets are shown the sender has not sent any weather packets the latest 10 day(s).

<< 59 60 61 62 63 64 65 >>
Time Temp. Humidity Pressure Rain* Wind** Luminosity Snow
1787756105 20.56° C 59% 1018.8 hPa - - - -
1787755555 20° C 62% 1019 hPa - - - -
1787755055 20° C 60% 1018.9 hPa - - - -
1787754544 20° C 59% 1019 hPa - - - -
1787753989 20° C 58% 1018.9 hPa - - - -
1787753450 20° C 60% 1018.9 hPa - - - -
1787752915 20° C 61% 1018.9 hPa - - - -
1787752420 20° C 61% 1019 hPa - - - -
1787751898 19.44° C 61% 1019.1 hPa - - - -
1787751345 20° C 63% 1019.1 hPa - - - -
1787750835 19.44° C 63% 1019.1 hPa - - - -
1787750275 19.44° C 63% 1019.1 hPa - - - -
1787749725 19.44° C 64% 1019.3 hPa - - - -
1787749205 19.44° C 63% 1019.3 hPa - - - -
1787748635 19.44° C 63% 1019.3 hPa - - - -
1787748085 19.44° C 63% 1019.3 hPa - - - -
1787747535 19.44° C 62% 1019.2 hPa - - - -
1787747013 19.44° C 61% 1019 hPa - - - -
1787746430 20° C 57% 1018.6 hPa - - - -
1787745910 20.56° C 56% 1018.6 hPa - - - -
1787745330 20.56° C 57% 1018.7 hPa - - - -
1787744760 20° C 62% 1018.8 hPa - - - -
1787744235 19.44° C 63% 1019 hPa - - - -
1787743718 19.44° C 65% 1019 hPa - - - -
1787743126 18.89° C 65% 1019 hPa - - - -

* Rain since midnight (hover to see other rain measurements)
** Current wind speed in m/s (hover to see current wind gust speed)